This is the latest recevied weather packets stored in our database for station/object KB9HUO. If no packets are shown the sender has not sent any weather packets the latest 10 day(s).
| Time | Temp. | Humidity | Pressure | Rain* | Wind** | Luminosity | Snow |
|---|---|---|---|---|---|---|---|
| 1777582202 | 16.67° C | 42% | 1016.6 hPa | 0 mm | - | 49 W/m² | - |
| 1777581901 | 16.67° C | 39% | 1016.8 hPa | 0 mm | - | 66 W/m² | - |
| 1777581596 | 16.67° C | 40% | 1016.8 hPa | 0 mm | - | 64 W/m² | - |
| 1777581291 | 16.67° C | 45% | 1016.8 hPa | 0 mm | - | 70 W/m² | - |
| 1777580986 | 16.67° C | 39% | 1017 hPa | 0 mm | - | 71 W/m² | - |
| 1777580685 | 16.67° C | 43% | 1017.1 hPa | 0 mm | - | 128 W/m² | - |
| 1777580382 | 16.67° C | 41% | 1017.2 hPa | 0 mm | - | 60 W/m² | - |
| 1777580078 | 16.11° C | 38% | 1017.2 hPa | 0 mm | - | 78 W/m² | - |
| 1777579774 | 16.67° C | 40% | 1017.3 hPa | 0 mm | - | 53 W/m² | - |
| 1777579472 | 16.67° C | 39% | 1017.2 hPa | 0 mm | - | 62 W/m² | - |
| 1777579167 | 16.11° C | 41% | 1017.3 hPa | 0 mm | - | 55 W/m² | - |
| 1777578863 | 16.11° C | 38% | 1017.4 hPa | 0 mm | - | 61 W/m² | - |
| 1777578559 | 16.67° C | 39% | 1017.4 hPa | 0 mm | - | 187 W/m² | - |
| 1777578254 | 16.67° C | 41% | 1017.4 hPa | 0 mm | - | 54 W/m² | - |
| 1777577949 | 16.67° C | 43% | 1017.4 hPa | 0 mm | - | 58 W/m² | - |
| 1777577645 | 16.11° C | 39% | 1017.6 hPa | 0 mm | - | 59 W/m² | - |
| 1777577342 | 16.67° C | 38% | 1018 hPa | 0 mm | - | 67 W/m² | - |
| 1777577038 | 16.11° C | 44% | 1017.6 hPa | 0 mm | - | 86 W/m² | - |
| 1777576735 | 16.11° C | 38% | 1017.6 hPa | 0 mm | - | 133 W/m² | - |
| 1777576434 | 16.67° C | 37% | 1017.8 hPa | 0 mm | - | 182 W/m² | - |
| 1777576131 | 16.67° C | 39% | 1017.6 hPa | 0 mm | - | 725 W/m² | - |
| 1777575826 | 16.11° C | 43% | 1017.8 hPa | 0 mm | - | 209 W/m² | - |
| 1777575524 | 16.11° C | 39% | 1017.7 hPa | 0 mm | - | 67 W/m² | - |
| 1777575219 | 16.67° C | 42% | 1017.8 hPa | 0 mm | - | 675 W/m² | - |
| 1777574915 | 16.11° C | 45% | 1017.8 hPa | 0 mm | - | 436 W/m² | - |
* Rain latest hour (hover to see other rain measurements)
** Current wind speed in m/s (hover to see current wind gust speed)